Home > Weather > Hildesheim > Past weeks

Flag for Germany Past Weather in Hildesheim, Lower Saxony, Germany — Yesterday and Last 2 Weeks

Now
64 °F

Passing clouds.


Feels Like: 64 °F
Forecast: 62 / 82 °F
Wind: 6 mph from Northwest

Location: Hannover

Current Time: Jul 24, 2016 at 1:15:42 AM

Latest Report: Jul 24, 2016 at 12:20 AM


Visibility: N/A

Pressure: 30.09 "Hg

Humidity: 94%

Dew Point: 63 °F

Location of HildesheimLocation

Past Weather in Hildesheim — Graph

°F

Hildesheim Temperature Yesterday

Maximum temperature yesterday: 72 °F (at 3:20 PM)
Minimum temperature yesterday: 61 °F (at 12:20 AM)
Average temperature yesterday: 67 °F

High & Low Weather Summary for the Past Weeks

 TemperatureHumidityPressure
High88 °F (Jul 20, 3:20 PM)100% (Jul 13, 2:20 AM)30.24 "Hg (Jul 13, 2:20 AM)
Low52 °F (Jul 16, 2:20 AM)31% (Jul 20, 5:50 PM)29.71 "Hg (Jul 10, 11:50 PM)
Average67 °F73%30.02 "Hg
* Reported Jul 9 12:20 AM — Jul 24 12:20 AM, Hildesheim, Weather by CustomWeather, © 2016

Note: Actual official high and low records may vary slightly from our data, if they occured in-between our weather recording intervals... More about our weather records

Advertising

Hildesheim Weather History for the Previous 24 Hours

Scroll right to see more
 ConditionsComfort  
Time TempWeatherWind HumidityBarometerVisibility
12:20 AM
Sun, Jul 24
64 °FPassing clouds.6 mph94%30.09 "HgN/A
11:50 PM
Sat, Jul 23
66 °FPassing clouds.3 mph88%30.09 "HgN/A
11:20 PM66 °FClear.2 mph88%30.09 "Hg10 mi
10:50 PM66 °FClear.2 mph88%30.09 "Hg10 mi
10:20 PM66 °FSunny.2 mph88%30.09 "Hg10 mi
9:50 PM66 °FSunny.6 mph88%30.09 "Hg10 mi
9:20 PM68 °FSunny.3 mph88%30.09 "Hg10 mi
8:50 PM68 °FSunny.3 mph83%30.07 "Hg10 mi
8:20 PM70 °FSunny.1 mph78%30.07 "Hg10 mi
7:50 PM72 °FSunny.3 mph73%30.07 "Hg10 mi
7:20 PM72 °FSunny.5 mph78%30.07 "Hg10 mi
6:50 PM72 °FSunny.5 mph73%30.07 "Hg10 mi
6:20 PM72 °FSunny.6 mph73%30.07 "Hg10 mi
5:50 PM72 °FPassing clouds.5 mph78%30.07 "HgN/A
5:20 PM72 °FSunny.2 mph73%30.09 "Hg10 mi
4:50 PM72 °FLight rain. Clear.3 mph73%30.09 "HgN/A
4:20 PM72 °FPartly sunny.3 mph73%30.09 "HgN/A
3:50 PM72 °FPartly sunny.3 mph69%30.09 "HgN/A
3:20 PM72 °FPartly sunny.2 mph73%30.09 "HgN/A
2:50 PM70 °FBroken clouds.2 mph73%30.09 "HgN/A
2:20 PM70 °FBroken clouds.3 mph69%30.09 "HgN/A
1:50 PM70 °FBroken clouds.3 mph69%30.09 "HgN/A
1:20 PM70 °FLight rain. Clear.2 mph69%30.09 "HgN/A
12:50 PM70 °FSunny.2 mph69%30.09 "Hg10 mi
12:20 PM70 °FSunny.3 mph73%30.09 "Hg10 mi
11:50 AM68 °FSunny.2 mph83%30.09 "Hg10 mi
11:20 AM68 °FSunny.5 mph83%30.09 "Hg10 mi
10:50 AM68 °FPassing clouds.3 mph88%30.09 "HgN/A
10:20 AM68 °FSunny.5 mph83%30.07 "Hg10 mi
9:50 AM66 °FBroken clouds.3 mph88%30.07 "HgN/A
9:20 AM66 °FLight rain. Broken clouds.3 mph88%30.07 "HgN/A
8:50 AM64 °FLight rain. Partly sunny.3 mph94%30.07 "HgN/A
8:20 AM64 °FLight rain. Partly sunny.6 mph94%30.07 "HgN/A
7:50 AM64 °FLight rain. Partly sunny.6 mph94%30.07 "HgN/A
7:20 AM63 °FLight rain. Partly sunny.5 mph94%30.04 "HgN/A
6:50 AM63 °FLight rain. Partly sunny.3 mph94%30.04 "HgN/A
6:20 AM63 °FLight rain. Passing clouds.6 mph100%30.04 "HgN/A
5:50 AM63 °FLight rain. Clear.5 mph94%30.04 "HgN/A
5:20 AM64 °FPassing clouds.5 mph88%30.04 "HgN/A
4:50 AM63 °FFog.5 mph94%30.04 "HgN/A
4:20 AM63 °FFog.2 mph94%30.04 "HgN/A
3:50 AM63 °FClear.3 mph94%30.04 "Hg10 mi
3:20 AM61 °FClear.5 mph100%30.04 "Hg10 mi
2:50 AM61 °FClear.1 mph100%30.04 "Hg10 mi
2:20 AM61 °FClear.2 mph94%30.07 "Hg10 mi
1:50 AM63 °FClear.3 mph94%30.07 "Hg10 mi
1:20 AM63 °FClear.2 mph94%30.07 "Hg10 mi
Weather by CustomWeather, © 2016

See weather overviewHow to use our weather pages